TRANSPORTER-15 DC (66764 NORAD) Tracking and Keplerian Element Data

This shows tracking and keplerian element data for the satellite.

Feedback or suggestion? Click here.




ElementValue
Catalog66764
NameTRANSPORTER-15 DC
Epoch Orbit325
Epoch Day354.18560888
Epoch Year2025
RAAN65.8291
Inclination97.4416
Eccentricity0.000179
Argument of Perigee206.6425
Mean Anonmoly153.4717
Mean Motion15.17669781
Decay Rate2.909E-05
L11 66764U 25276DC 25354.18560888 .00002909 00000+0 14778-3 0 9993
L22 66764 97.4416 65.8291 0001790 206.6425 153.4717 15.17669781 3254



Live tracking and technical data element details for TRANSPORTER-15 DC (NORAD 66764). TRANSPORTER-15 DC can be tracked NOW for your location showing map with azimuth and elevation plus other details from your city location.







IsCatalogInMostPopularTable: catalog: 66764, numindb: 17
Update: records affected: 1



GetName: 66764 TRANSPORTER-15 DC

Hit Count: updated at: Mon, 20 Apr 2026 10:43:24 GMT